Temperature
17 17 17 17 17 17 17 17 17 17 17 17 17 18 18 18 18 17 17 17 17 17 17 17 17 17 17 17 17 17 17 18 18 18 18 18 18 18 18 18 18 18 18
17 17 17 17 17 17 17 17 17 17 17 17 17 17 17 17 17 17 17 17 17 17 17 17 17 17 17 17 17 17 17 17 17 17 17 17 17 17 17 17 18 18 17
17 17 17 17 17 17 17 17 17 17 17 17 17 17 17 17 17 17 17 17 17 17 17 17 17 17 17 17 17 17 17 17 17 17 17 17 17 17 17 17 17 17 17
17 17 17 17 17 17 17 17 17 17 17 17 17 17 17 17 17 17 17 17 17 17 17 17 17 17 17 17 17 17 17 17 17 17 17 17 17 17 17 17 17 17 17
17 17 17 17 17 17 17 17 17 17 17 17 17 17 17 17 17 17 17 17 17 17 17 17 17 17 17 17 17 17 17 17 17 17 17 17 17 17 17 17 17 17 17
17 17 17 17 17 17 17 17 17 17 17 16 17 17 17 17 16 16 16 17 16 16 16 16 16 16 16 16 16 16 17 17 17 17 17 17 17 17 17 17 17 17 17
17 17 17 17 17 17 17 17 17 17 16 16 16 17 17 16 16 16 16 16 16 16 16 16 16 16 16 16 16 16 16 16 16 16 16 16 16 16 17 17 16 16 16
17 17 17 17 17 16 17 16 17 17 17 16 16 16 16 16 16 16 16 16 16 16 16 16 16 16 16 16 16 16 16 16 16 16 16 16 16 16 16 16 16 16 16
17 17 17 17 17 16 16 16 16 16 17 16 16 16 16 16 16 16 16 16 16 16 16 16 16 16 16 16 16 16 16 16 16 16 16 16 16 16 16 16 16 16 16
17 17 17 17 16 16 16 16 16 16 16 16 16 16 16 16 16 16 16 16 16 16 16 16 16 16 16 16 16 16 16 16 16 16 16 16 16 16 16 16 16 16 16
17 17 16 16 16 16 16 16 16 16 16 16 16 16 16 16 16 16 16 16 16 16 16 16 16 16 16 16 16 16 16 16 16 16 15 15 16 16 16 16 16 15 15
17 16 16 16 16 16 16 16 16 16 16 16 16 16 16 16 15 15 15 15 15 15 15 15 15 15 16 15 15 15 15 15 16 15 15 15 15 15 15 15 15 15 15
17 16 16 16 16 16 16 16 16 16 16 16 16 16 15 15 15 15 15 15 15 15 15 15 15 15 15 15 15 15 15 15 15 15 15 15 15 15 15 15 15 15 15
16 16 16 16 16 16 16 16 16 16 16 16 15 15 15 15 15 15 15 15 15 15 15 15 15 15 15 15 15 15 15 15 15 15 15 15 15 15 15 15 15 15 15
16 16 16 16 16 16 16 16 16 16 16 15 15 15 15 15 15 15 15 15 15 15 15 15 15 15 15 15 15 15 14 14 15 15 15 15 15 15 14 14 14 14 14
17 17 16 16 16 16 16 16 16 16 16 15 15 15 15 15 15 15 15 15 15 15 15 15 14 14 14 14 14 14 14 14 14 14 14 14 14 14 14 14 14 14 14
17 17 16 16 16 16 16 16 16 16 16 16 15 15 15 15 15 15 15 15 14 14 14 14 14 14 14 14 14 14 14 14 14 14 14 14 14 14 14 14 14 14 14
17 17 16 16 16 16 16 16 16 16 16 15 15 15 15 15 15 15 14 14 14 14 14 14 14 14 14 14 14 14 14 13 13 13 14 14 14 14 14 14 14 13 13
17 17 16 16 16 16 16 16 16 16 16 15 15 15 15 15 15 14 14 14 14 14 14 14 14 14 14 14 14 13 13 13 13 13 13 13 13 13 13 13 13 13 13
17 17 17 16 16 16 16 16 15 15 15 15 15 15 15 15 15 14 14 14 14 14 14 14 14 14 13 13 13 13 13 13 13 13 13 13 13 13 13 13 13 13 13
17 17 16 16 16 16 16 16 15 15 15 15 15 15 15 15 14 14 14 14 14 14 14 14 14 13 13 13 13 13 13 13 13 12 12 13 13 13 13 13 13 13 13
17 17 16 16 16 16 16 16 16 15 15 15 15 15 15 14 14 14 14 14 14 14 14 14 13 13 13 13 13 13 12 12 12 12 12 12 12 12 12 12 12 12 13
17 17 16 16 16 16 16 16 15 15 15 15 15 15 15 14 14 14 14 14 14 14 13 13 13 13 13 13 13 13 13 12 12 12 12 12 12 12 12 12 12 12 12
17 17 16 16 16 16 16 16 15 15 15 15 15 15 15 14 14 14 14 14 14 14 14 13 13 13 13 13 13 13 13 13 12 12 12 12 12 12 12 12 12 12 12
17 17 17 16 16 16 16 16 16 15 15 15 15 15 15 14 14 14 14 14 14 13 13 13 13 13 13 13 13 13 13 13 12 12 12 12 12 12 12 12 12 12 12
17 17 17 16 16 16 16 16 16 15 15 15 15 15 15 14 14 14 14 14 14 14 13 13 13 13 13 13 13 13 13 13 13 13 12 12 12 12 12 12 12 12 12
Wind_Speed
2 3 3 6 7 9 9 8 9 8 8 9 9 9 9 9 9 9 9 10 10 10 10 10 10 11 11 10 10 10 10 10 10 9 9 8 8 8 8 7 7 6 6
0 2 4 6 7 8 9 9 9 9 9 9 9 9 9 9 9 9 9 9 10 10 10 10 10 11 11 10 11 11 11 11 11 11 10 9 9 8 8 8 8 7 8
2 3 4 6 7 7 8 8 9 9 9 9 9 9 9 9 9 9 8 8 10 10 11 10 11 11 10 11 11 11 12 11 12 12 11 9 8 9 9 9 9 10 10
3 4 5 7 7 8 8 8 8 9 9 9 9 10 10 10 9 9 8 8 10 10 11 11 11 11 11 12 12 12 12 12 12 12 10 9 8 9 11 11 11 11 11
4 5 5 8 8 8 9 9 9 9 9 9 9 10 10 10 10 10 11 11 11 11 11 11 11 12 12 12 12 13 13 13 13 12 10 9 8 10 11 12 12 12 12
4 5 5 8 8 8 9 9 10 10 9 10 10 10 10 10 10 11 13 13 12 12 12 12 12 12 12 13 13 13 14 14 12 11 10 9 8 10 11 11 12 12 12
4 5 5 7 7 8 9 10 10 10 10 10 11 10 10 10 11 12 13 13 13 13 12 13 12 13 13 13 13 14 14 13 12 10 9 9 9 11 11 12 12 12 12
4 5 5 6 7 8 9 10 10 10 10 10 10 10 10 11 12 13 13 13 14 13 14 14 14 14 14 14 14 14 14 13 11 10 9 9 11 12 13 13 12 12 13
5 5 5 6 6 7 8 9 10 10 10 10 10 10 11 11 12 12 12 13 13 14 14 14 15 14 14 15 14 14 14 14 12 9 9 9 11 12 13 13 13 13 13
4 4 4 6 6 6 6 8 9 10 10 10 11 11 11 11 11 12 12 12 13 13 14 14 15 15 15 15 15 15 14 13 11 10 9 9 12 12 13 13 13 13 13
3 2 3 4 5 6 6 7 8 8 9 9 10 11 10 10 10 10 10 11 12 13 13 14 15 15 15 15 15 15 13 11 10 9 9 10 11 12 12 12 12 12 13
1 1 1 2 3 4 4 5 6 6 7 8 8 8 9 9 9 9 11 12 12 12 13 14 15 14 13 12 12 13 11 11 10 9 10 11 11 12 11 11 11 11 12
2 1 1 1 2 3 3 4 4 5 5 6 6 7 7 8 9 9 9 10 11 11 11 11 12 11 11 10 10 11 11 10 10 9 10 11 11 11 11 11 12 12 12
2 2 1 1 2 2 2 2 3 3 3 3 4 5 6 5 6 6 6 7 8 8 8 9 9 10 11 11 10 10 11 10 10 10 11 12 11 11 11 11 12 12 12
4 3 2 2 2 2 2 1 2 2 3 3 3 4 5 4 4 5 5 6 7 8 7 7 8 8 8 9 10 10 9 10 11 11 11 13 13 12 11 11 11 12 12
5 4 3 2 2 3 2 2 1 2 2 3 3 3 4 5 4 4 4 5 5 7 7 7 7 6 6 7 7 9 9 10 11 11 12 13 15 14 13 12 12 11 12
4 4 4 4 3 3 2 2 2 2 3 3 3 3 4 5 5 5 4 4 4 7 8 8 8 7 5 6 6 7 8 9 10 10 11 11 12 13 13 13 12 12 11
4 3 4 4 4 3 3 2 3 3 4 3 4 4 4 5 6 5 4 3 5 7 6 5 4 5 5 5 5 5 6 7 9 9 10 11 11 11 12 13 12 13 12
5 5 4 4 4 3 3 3 3 4 3 3 4 4 4 5 6 6 4 4 6 6 4 4 4 4 4 4 4 5 5 5 6 8 9 10 10 11 11 12 13 13 12
4 4 5 4 3 3 3 3 3 3 2 3 3 3 4 6 7 6 5 5 5 4 4 4 4 4 3 3 5 5 4 4 5 6 6 8 9 10 10 11 11 11 12
3 4 4 5 4 3 3 2 2 1 1 1 2 3 5 6 7 6 4 4 4 3 3 4 4 4 3 2 3 3 4 4 5 4 5 5 7 8 9 10 9 9 9
4 4 4 4 4 4 3 3 2 2 1 1 2 3 3 5 6 6 5 3 3 4 4 3 3 3 2 2 2 2 2 4 4 4 4 4 4 6 7 8 8 9 9
5 5 5 5 4 4 4 3 3 3 3 2 1 1 1 3 4 4 5 4 4 4 4 3 3 4 2 1 2 3 2 1 2 3 3 4 4 4 4 6 7 7 8
6 5 5 5 5 4 5 5 4 4 3 2 2 1 1 2 4 4 4 4 4 3 4 3 3 2 3 2 1 2 2 3 2 1 3 3 3 3 4 4 5 6 6
4 4 5 5 4 4 5 5 5 3 3 2 1 2 1 1 2 3 4 4 3 3 3 3 3 2 2 3 2 2 2 2 2 2 1 3 3 3 3 3 3 4 5
3 3 5 5 4 5 5 5 6 6 4 3 2 2 1 1 1 2 3 3 3 3 4 4 3 3 2 2 2 2 2 2 2 2 2 1 1 2 2 2 2 2 3
Wind_Direction
319 331 25 60 61 59 67 78 84 80 80 79 79 80 82 82 81 81 84 82 83 83 80 78 78 78 75 71 70 71 74 74 71 72 71 72 73 73 74 74 74 74 81
290 18 54 68 71 70 69 74 76 76 78 77 75 79 81 81 82 84 83 83 83 83 82 79 77 77 75 73 72 69 72 73 69 67 65 64 67 69 73 76 76 76 73
71 50 60 68 73 73 71 72 75 78 78 77 76 77 78 77 78 79 82 88 89 84 81 80 78 76 74 72 73 71 70 71 68 66 59 52 57 64 69 75 78 76 70
81 61 62 73 75 76 74 72 73 76 77 78 79 79 78 76 73 71 74 93 95 87 82 81 79 76 73 71 71 70 69 70 68 64 53 48 54 66 68 73 75 77 73
66 58 67 76 76 79 77 74 74 77 78 78 79 80 78 76 72 68 75 91 94 87 82 79 78 77 74 72 70 71 70 67 65 59 51 49 56 67 68 71 73 74 74
64 62 76 79 78 79 79 78 78 76 76 78 79 80 77 76 75 73 76 85 86 83 80 78 77 77 75 73 72 71 69 67 62 55 49 48 56 67 70 73 74 74 73
73 66 77 83 82 81 81 82 81 78 75 76 79 80 78 77 77 76 76 79 81 83 81 77 75 76 74 75 74 71 70 67 62 55 48 48 63 69 70 72 75 75 75
83 67 70 79 79 79 83 84 83 79 76 77 79 80 79 77 77 76 75 77 76 78 77 75 73 73 72 73 72 69 68 65 61 54 48 54 67 70 70 71 74 76 75
75 65 54 61 72 81 84 83 81 77 75 77 79 79 79 77 77 75 73 74 74 73 73 72 71 69 70 70 69 67 65 62 57 52 53 56 67 72 70 69 70 73 75
69 59 52 55 61 66 74 79 77 75 73 73 77 77 72 69 70 70 70 72 74 73 71 72 71 70 69 69 67 64 62 57 53 50 50 60 66 71 72 70 70 70 72
78 53 53 61 63 63 67 72 70 72 67 66 70 74 68 60 58 60 65 70 73 73 73 72 70 69 66 65 64 61 57 52 49 46 49 61 68 73 73 72 72 72 72
146 119 69 70 65 66 71 65 61 64 61 60 62 65 64 60 57 59 63 69 71 71 71 70 69 64 61 58 57 56 51 48 45 43 51 58 67 73 72 72 74 74 74
182 167 138 100 79 81 73 70 67 69 68 62 62 64 66 61 56 54 57 58 62 66 67 66 64 60 59 57 55 51 48 46 39 38 46 55 64 70 70 72 73 72 72
164 189 184 133 100 105 100 81 83 84 80 71 66 70 75 68 62 57 59 61 65 70 71 68 69 64 60 57 55 53 50 48 41 37 41 51 60 67 68 70 74 73 71
173 192 196 166 143 124 107 85 87 93 100 102 97 88 90 86 78 75 69 68 69 76 80 77 72 66 61 54 53 55 52 49 45 42 39 49 56 60 63 67 71 73 72
184 191 183 170 162 133 130 120 108 116 124 119 118 119 110 104 97 91 80 73 72 79 85 86 81 74 64 59 52 50 49 48 44 42 39 41 47 52 56 61 67 70 70
186 187 182 175 152 143 151 147 131 130 129 126 133 128 119 114 109 103 92 83 85 93 93 90 80 73 67 60 50 46 47 45 44 42 40 38 38 43 50 55 60 65 68
171 175 185 172 152 151 150 133 116 121 124 122 126 127 126 127 124 110 95 89 97 99 95 90 82 77 66 61 54 43 43 41 39 41 43 39 38 36 41 48 54 59 62
177 173 168 161 159 158 144 116 105 103 108 119 126 130 131 128 128 117 105 106 108 98 88 96 81 87 84 72 67 54 42 37 31 37 40 38 37 37 39 41 47 54 57
176 168 164 161 158 141 123 104 86 77 77 96 117 134 135 131 130 122 110 109 112 97 87 91 93 78 81 81 77 61 42 34 36 32 31 34 35 36 41 42 41 42 48
169 164 165 161 163 147 132 134 130 139 125 92 91 129 135 134 134 128 118 112 110 112 117 114 105 91 74 71 77 50 28 32 36 26 26 34 31 31 36 39 40 40 36
189 181 170 171 169 168 163 156 145 137 127 118 74 90 124 138 141 143 136 132 127 117 110 114 110 104 80 53 94 85 28 6 8 18 20 25 20 27 30 33 38 38 36
197 194 188 184 177 174 154 119 91 74 61 63 65 75 111 146 145 145 147 140 140 142 148 146 135 127 131 52 65 117 120 224 333 353 11 17 14 20 17 23 30 32 34
210 199 188 183 178 173 157 153 150 155 167 190 175 172 131 136 145 146 147 147 149 149 155 168 155 142 136 138 78 70 119 151 140 348 343 358 8 12 5 12 19 24 29
204 193 186 178 176 169 166 168 159 161 174 153 121 134 137 121 143 155 158 158 161 163 170 174 160 158 154 156 153 136 103 81 104 146 287 331 351 350 352 358 9 17 25
185 182 177 173 181 170 168 169 171 174 166 150 158 171 182 187 183 171 166 171 176 175 182 186 178 174 176 164 164 156 153 153 171 159 184 262 311 321 341 354 2 360 16
Height
1526 1525 1524 1523 1522 1519 1517 1516 1518 1520 1521 1521 1521 1522 1522 1522 1522 1522 1522 1522 1522 1522 1522 1522 1522 1523 1523 1523 1523 1523 1522 1522 1522 1522 1522 1522 1522 1522 1521 1521 1520 1519 1519
1527 1526 1526 1525 1524 1523 1521 1521 1521 1522 1522 1522 1522 1522 1522 1523 1523 1522 1522 1522 1522 1523 1523 1523 1524 1524 1524 1524 1524 1524 1524 1523 1523 1523 1523 1523 1523 1522 1522 1522 1521 1520 1519
1528 1527 1527 1526 1526 1525 1525 1524 1524 1524 1524 1524 1524 1523 1523 1523 1523 1523 1522 1521 1523 1523 1524 1524 1525 1525 1525 1525 1525 1525 1525 1525 1525 1525 1524 1524 1524 1524 1523 1523 1522 1521 1519
1529 1529 1528 1528 1527 1527 1526 1526 1526 1525 1525 1525 1525 1525 1525 1524 1524 1522 1519 1518 1522 1524 1525 1526 1526 1526 1526 1526 1526 1526 1526 1526 1526 1526 1526 1525 1525 1525 1524 1524 1523 1522 1521
1530 1530 1530 1529 1529 1529 1528 1528 1527 1527 1527 1526 1526 1526 1526 1526 1525 1522 1517 1517 1522 1525 1526 1527 1527 1528 1528 1528 1528 1528 1528 1527 1527 1527 1527 1527 1526 1526 1526 1525 1525 1524 1523
1531 1531 1531 1531 1531 1530 1530 1530 1529 1529 1529 1528 1528 1528 1528 1527 1527 1525 1522 1523 1525 1527 1528 1529 1529 1529 1529 1529 1530 1529 1529 1529 1529 1529 1528 1528 1528 1528 1527 1527 1527 1526 1525
1533 1533 1533 1533 1532 1532 1532 1532 1531 1531 1531 1531 1530 1530 1530 1530 1529 1529 1528 1528 1529 1530 1530 1530 1530 1531 1531 1531 1531 1531 1531 1531 1530 1530 1530 1530 1530 1529 1529 1529 1528 1528 1527
1534 1534 1534 1534 1534 1534 1534 1534 1533 1533 1533 1533 1533 1532 1532 1532 1532 1532 1532 1532 1532 1532 1532 1532 1532 1533 1533 1533 1533 1533 1533 1532 1532 1532 1532 1531 1531 1531 1530 1530 1530 1530 1529
1535 1535 1535 1536 1536 1536 1536 1536 1536 1535 1535 1535 1535 1534 1534 1534 1534 1534 1534 1534 1534 1534 1534 1535 1535 1535 1535 1535 1535 1534 1534 1534 1534 1533 1533 1533 1533 1533 1532 1532 1531 1531 1531
1537 1537 1537 1537 1537 1537 1537 1538 1538 1537 1537 1537 1537 1536 1536 1536 1536 1536 1536 1537 1537 1537 1537 1537 1537 1537 1537 1537 1537 1537 1536 1536 1536 1536 1535 1535 1535 1534 1534 1534 1533 1533 1533
1538 1538 1538 1539 1539 1539 1539 1539 1539 1539 1539 1539 1539 1539 1539 1539 1538 1538 1539 1539 1539 1539 1539 1539 1539 1539 1539 1539 1539 1539 1538 1538 1538 1537 1537 1537 1537 1536 1536 1536 1535 1535 1535
1539 1539 1540 1540 1540 1541 1541 1541 1541 1541 1541 1541 1541 1541 1541 1541 1540 1541 1541 1541 1541 1541 1541 1541 1541 1541 1541 1541 1540 1540 1540 1540 1539 1539 1539 1539 1539 1538 1538 1537 1537 1537 1537
1539 1540 1541 1541 1542 1542 1542 1543 1543 1543 1543 1543 1543 1543 1543 1543 1542 1543 1543 1543 1543 1543 1543 1543 1543 1543 1542 1542 1542 1542 1542 1542 1541 1541 1541 1541 1540 1540 1540 1539 1539 1539 1538
1540 1541 1541 1542 1543 1543 1543 1544 1544 1544 1545 1545 1545 1545 1545 1544 1544 1544 1545 1545 1545 1545 1544 1544 1544 1544 1544 1544 1544 1544 1543 1543 1543 1543 1542 1542 1542 1542 1541 1541 1540 1540 1540
1540 1541 1542 1543 1543 1544 1544 1545 1545 1545 1546 1546 1546 1546 1546 1546 1546 1546 1546 1546 1546 1546 1546 1546 1546 1546 1546 1546 1545 1545 1545 1545 1545 1544 1544 1544 1543 1543 1543 1542 1542 1542 1542
1541 1541 1542 1543 1544 1544 1545 1545 1546 1546 1547 1547 1547 1547 1547 1548 1548 1548 1547 1547 1547 1547 1547 1547 1547 1547 1547 1547 1547 1546 1546 1546 1546 1545 1545 1545 1545 1545 1544 1544 1544 1543 1543
1541 1541 1542 1543 1544 1545 1545 1546 1546 1547 1547 1548 1548 1548 1548 1549 1549 1549 1548 1548 1548 1549 1549 1549 1549 1549 1548 1548 1548 1548 1548 1547 1547 1547 1546 1546 1546 1546 1546 1545 1545 1545 1544
1540 1541 1542 1543 1544 1545 1545 1546 1547 1547 1548 1548 1549 1549 1549 1549 1550 1550 1550 1550 1550 1550 1550 1550 1550 1550 1550 1550 1549 1549 1549 1549 1548 1548 1548 1548 1548 1547 1547 1546 1546 1546 1545
1540 1541 1542 1543 1544 1545 1545 1546 1547 1547 1548 1548 1549 1549 1550 1550 1550 1550 1551 1551 1551 1551 1551 1551 1551 1551 1551 1551 1551 1551 1550 1550 1550 1549 1549 1549 1549 1549 1548 1547 1547 1547 1546
1539 1541 1542 1542 1543 1544 1545 1546 1547 1547 1548 1549 1549 1550 1550 1551 1551 1551 1551 1552 1552 1552 1552 1552 1552 1552 1552 1552 1552 1552 1551 1551 1551 1551 1550 1550 1550 1550 1549 1549 1548 1548 1548
1538 1539 1541 1542 1543 1544 1544 1545 1546 1547 1548 1548 1549 1550 1550 1551 1551 1551 1552 1552 1552 1552 1552 1552 1552 1552 1552 1552 1552 1552 1553 1553 1552 1552 1552 1551 1551 1551 1550 1550 1550 1549 1549
1536 1538 1539 1540 1541 1543 1544 1545 1546 1547 1547 1548 1549 1550 1550 1551 1551 1551 1552 1552 1552 1552 1552 1553 1552 1552 1553 1553 1553 1553 1553 1555 1553 1553 1553 1552 1552 1552 1551 1551 1551 1550 1549
1534 1536 1537 1539 1540 1541 1543 1544 1545 1546 1547 1548 1548 1549 1550 1551 1551 1551 1552 1552 1552 1553 1553 1553 1553 1553 1553 1553 1553 1554 1554 1554 1554 1554 1553 1553 1553 1552 1552 1551 1551 1550 1550
1532 1534 1536 1537 1539 1540 1541 1542 1543 1544 1545 1547 1548 1549 1549 1550 1551 1551 1552 1552 1552 1553 1553 1553 1553 1553 1553 1553 1554 1554 1554 1554 1554 1554 1554 1554 1553 1553 1552 1552 1551 1550 1550
1531 1532 1534 1536 1537 1539 1540 1541 1542 1543 1545 1546 1547 1548 1549 1550 1550 1551 1551 1552 1552 1552 1553 1553 1553 1553 1553 1554 1554 1554 1554 1554 1554 1554 1554 1554 1553 1553 1552 1552 1551 1551 1550
1529 1531 1532 1534 1535 1537 1538 1539 1541 1542 1543 1545 1546 1547 1547 1548 1549 1549 1550 1551 1551 1552 1552 1552 1553 1553 1553 1553 1554 1554 1554 1554 1553 1553 1553 1553 1553 1553 1552 1551 1551 1550 1550